Total_Precipitation_Accumulation
1.82 1.86 1.87 1.81 1.82 1.90 1.90 1.79 1.76 1.70 1.57 1.53 1.45 1.37 1.32 1.31 1.36 1.48 1.51 1.55 1.62 1.71 1.80 1.79 1.80 1.80 1.87 1.86 1.90 1.98 2.13 2.25 2.22 1.93 1.74 1.67 1.62 1.53 1.53 1.49 1.45 1.36 1.19
1.59 1.54 1.56 1.61 1.60 1.64 1.64 1.54 1.51 1.55 1.47 1.43 1.32 1.20 1.13 1.13 1.19 1.25 1.27 1.30 1.43 1.48 1.51 1.54 1.52 1.56 1.62 1.61 1.64 1.67 1.76 1.92 1.98 1.96 1.84 1.78 1.70 1.59 1.62 1.63 1.37 1.17 1.13
1.52 1.49 1.45 1.49 1.53 1.53 1.52 1.52 1.48 1.50 1.46 1.35 1.19 1.10 1.06 1.02 1.04 1.10 1.16 1.16 1.20 1.28 1.29 1.35 1.38 1.42 1.39 1.33 1.39 1.49 1.53 1.60 1.80 1.82 1.71 1.65 1.57 1.48 1.62 1.54 1.42 1.50 1.17
1.41 1.43 1.47 1.51 1.56 1.56 1.59 1.61 1.56 1.45 1.36 1.28 1.20 1.10 1.04 0.99 1.00 1.01 1.01 1.08 1.12 1.16 1.14 1.17 1.18 1.20 1.22 1.27 1.30 1.45 1.51 1.63 1.71 1.72 1.67 1.62 1.54 1.47 1.62 1.62 1.58 1.54 1.31
1.32 1.36 1.41 1.45 1.49 1.44 1.51 1.54 1.53 1.51 1.37 1.29 1.22 1.13 0.99 0.88 0.84 0.88 0.90 0.94 1.02 1.05 1.05 1.03 1.02 1.06 1.14 1.15 1.11 1.24 1.41 1.58 1.59 1.59 1.58 1.61 1.53 1.57 1.55 1.50 1.54 1.58 1.47
1.41 1.39 1.34 1.35 1.32 1.29 1.30 1.36 1.34 1.31 1.32 1.27 1.17 1.04 0.92 0.76 0.78 0.79 0.81 0.87 0.97 1.01 0.98 0.98 0.95 0.93 0.96 1.00 1.00 1.07 1.23 1.37 1.46 1.54 1.55 1.57 1.57 1.65 1.67 1.65 1.64 1.68 1.66
1.26 1.24 1.19 1.17 1.16 1.17 1.14 1.17 1.22 1.28 1.29 1.21 1.11 1.07 1.00 0.87 0.72 0.62 0.67 0.79 0.94 0.95 0.94 0.99 0.89 0.80 0.90 0.93 0.96 0.96 0.99 1.03 1.16 1.39 1.55 1.60 1.71 1.85 1.93 1.86 1.78 1.74 1.73
1.17 1.14 1.06 1.01 1.03 1.10 1.08 1.09 1.17 1.20 1.20 1.20 1.18 1.22 1.21 0.98 0.73 0.58 0.64 0.80 0.91 0.84 0.81 0.88 0.95 0.96 0.92 0.93 0.95 0.97 0.99 0.99 1.02 1.10 1.36 1.47 1.51 1.70 1.90 1.94 1.91 1.82 1.79
1.11 1.09 0.99 0.92 0.99 1.03 0.99 1.01 1.09 1.10 1.10 1.12 1.14 1.21 1.21 1.07 0.86 0.69 0.69 0.81 0.88 0.84 0.82 0.80 0.81 0.87 0.86 0.92 1.00 1.15 1.19 1.18 0.96 1.00 1.13 1.22 1.28 1.42 1.57 1.77 1.96 2.05 1.98
1.09 1.05 0.99 0.99 1.00 1.03 1.04 1.03 0.99 1.01 1.00 0.98 1.03 1.13 1.10 1.01 0.82 0.66 0.66 0.68 0.79 0.90 0.99 0.98 0.94 0.87 0.85 0.92 1.06 1.24 1.31 1.28 1.26 1.38 1.49 1.48 1.46 1.51 1.47 1.65 1.95 2.08 2.03
1.04 1.02 1.05 1.07 1.03 1.01 1.05 1.03 0.97 0.91 0.94 0.98 0.97 1.04 1.06 0.88 0.71 0.60 0.64 0.68 0.75 0.87 0.96 1.02 0.99 0.95 0.94 0.97 1.03 1.18 1.29 1.29 1.51 1.86 1.87 1.73 1.63 1.58 1.47 1.51 1.74 1.91 2.01
1.16 1.13 1.07 1.01 0.92 0.91 1.06 1.01 0.94 0.95 0.99 1.04 1.01 1.01 0.96 0.78 0.60 0.54 0.60 0.64 0.68 0.79 0.92 0.92 0.94 0.96 0.95 0.99 1.02 1.15 1.29 1.45 1.72 2.06 2.02 1.80 1.61 1.50 1.43 1.37 1.47 1.64 1.82
1.28 1.23 1.15 1.04 0.96 0.96 1.04 1.02 0.92 0.93 0.92 0.89 0.86 0.90 0.85 0.72 0.63 0.55 0.56 0.59 0.59 0.65 0.76 0.81 0.82 0.83 0.90 1.04 1.11 1.19 1.34 1.59 1.83 1.94 1.84 1.65 1.52 1.47 1.41 1.37 1.36 1.51 1.63
1.32 1.24 1.20 1.13 1.02 0.95 0.95 0.90 0.87 0.85 0.86 0.86 0.82 0.79 0.73 0.67 0.59 0.52 0.53 0.54 0.54 0.55 0.64 0.75 0.85 0.91 1.00 1.16 1.33 1.43 1.47 1.56 1.65 1.70 1.60 1.47 1.38 1.38 1.37 1.25 1.27 1.39 1.55
1.33 1.16 1.08 1.02 0.94 0.94 0.89 0.81 0.78 0.72 0.73 0.78 0.74 0.65 0.60 0.56 0.50 0.52 0.54 0.54 0.53 0.56 0.61 0.74 0.95 1.10 1.20 1.24 1.29 1.38 1.40 1.36 1.36 1.35 1.33 1.30 1.31 1.34 1.28 1.17 1.21 1.29 1.42
1.17 1.06 0.98 0.91 0.87 0.79 0.78 0.76 0.77 0.72 0.65 0.65 0.66 0.57 0.48 0.49 0.50 0.47 0.47 0.48 0.55 0.61 0.64 0.80 0.99 1.09 1.16 1.22 1.25 1.26 1.24 1.20 1.16 1.16 1.17 1.14 1.15 1.19 1.23 1.21 1.24 1.31 1.36
1.09 1.01 0.91 0.89 0.87 0.85 0.82 0.80 0.83 0.79 0.71 0.67 0.65 0.58 0.50 0.47 0.46 0.43 0.43 0.41 0.46 0.56 0.66 0.85 0.98 1.02 1.12 1.22 1.20 1.17 1.16 1.10 1.06 1.02 1.03 1.01 0.97 1.02 1.13 1.20 1.26 1.34 1.36
0.94 0.92 0.90 0.88 0.85 0.87 0.89 0.86 0.81 0.85 0.82 0.73 0.63 0.56 0.49 0.49 0.49 0.47 0.46 0.44 0.51 0.58 0.73 0.92 0.97 0.96 1.01 1.06 1.07 1.09 1.10 1.04 0.99 1.00 1.01 1.00 0.98 0.97 1.05 1.13 1.18 1.22 1.26
0.84 0.86 0.88 0.91 0.88 0.83 0.86 0.88 0.86 0.85 0.87 0.81 0.70 0.60 0.57 0.57 0.60 0.62 0.59 0.56 0.61 0.66 0.72 0.78 0.86 0.92 0.96 0.96 0.98 0.98 1.02 1.04 0.99 0.98 0.99 0.98 0.99 1.00 1.01 1.02 1.02 0.99 1.01
0.71 0.76 0.82 0.86 0.90 0.88 0.83 0.85 0.87 0.91 0.93 0.87 0.74 0.67 0.69 0.73 0.75 0.75 0.69 0.63 0.63 0.66 0.73 0.82 0.86 0.87 0.89 0.92 0.91 0.88 0.87 0.92 0.93 0.91 0.88 0.89 0.90 0.91 0.94 0.93 0.92 0.92 0.91
0.61 0.63 0.64 0.62 0.63 0.66 0.67 0.70 0.74 0.80 0.84 0.79 0.68 0.66 0.75 0.75 0.81 0.78 0.74 0.72 0.73 0.73 0.75 0.82 0.84 0.84 0.80 0.83 0.90 0.89 0.87 0.86 0.84 0.85 0.82 0.79 0.77 0.76 0.74 0.74 0.74 0.76 0.80
0.54 0.51 0.46 0.44 0.46 0.51 0.55 0.57 0.62 0.65 0.69 0.67 0.60 0.58 0.65 0.63 0.66 0.66 0.67 0.68 0.70 0.71 0.75 0.83 0.84 0.80 0.77 0.80 0.89 0.92 0.89 0.84 0.80 0.80 0.79 0.74 0.68 0.65 0.66 0.67 0.69 0.73 0.77
0.51 0.48 0.43 0.39 0.41 0.48 0.53 0.55 0.59 0.61 0.63 0.62 0.56 0.53 0.56 0.60 0.60 0.64 0.65 0.62 0.60 0.61 0.62 0.67 0.72 0.73 0.73 0.73 0.74 0.73 0.76 0.75 0.73 0.71 0.77 0.75 0.71 0.66 0.66 0.64 0.64 0.67 0.70
0.49 0.48 0.47 0.44 0.46 0.53 0.55 0.52 0.52 0.54 0.56 0.59 0.54 0.50 0.51 0.54 0.57 0.59 0.64 0.65 0.64 0.63 0.60 0.62 0.65 0.64 0.64 0.67 0.66 0.61 0.59 0.62 0.64 0.66 0.70 0.70 0.66 0.66 0.67 0.65 0.62 0.64 0.66
0.44 0.46 0.48 0.48 0.49 0.53 0.54 0.52 0.52 0.54 0.58 0.64 0.60 0.53 0.51 0.48 0.48 0.49 0.54 0.59 0.59 0.57 0.54 0.51 0.51 0.50 0.50 0.50 0.50 0.50 0.56 0.57 0.56 0.59 0.62 0.64 0.58 0.58 0.62 0.59 0.57 0.59 0.63
0.42 0.47 0.49 0.52 0.56 0.56 0.56 0.58 0.58 0.58 0.59 0.59 0.58 0.57 0.56 0.53 0.50 0.49 0.51 0.52 0.50 0.47 0.46 0.47 0.45 0.43 0.40 0.36 0.39 0.45 0.45 0.39 0.38 0.43 0.49 0.54 0.53 0.53 0.57 0.59 0.54 0.57 0.60